Hourly Weather Golce

Today, 13 May, Thursday

Time Temperature Precipitation Wind Pressure Humidity
00:00 +9°C° 0 mm 6 mps 736 mmHg 78%
01:00 +8°C° 0 mm 5 mps 735 mmHg 81%
02:00 +8°C° 0 mm 5 mps 735 mmHg 83%
03:00 +7°C° 0 mm 5 mps 735 mmHg 84%
04:00 +7°C° 0 mm 5 mps 734 mmHg 85%
05:00 +8°C° 0 mm 5 mps 734 mmHg 81%
06:00 +9°C° 0 mm 5 mps 734 mmHg 78%
07:00 +12°C° 0 mm 5 mps 733 mmHg 74%
08:00 +13°C° 0 mm 4 mps 733 mmHg 73%
09:00 +14°C° 0 mm 4 mps 733 mmHg 71%
10:00 +16°C° 0 mm 3 mps 733 mmHg 70%
11:00 +16°C° 0.2 mm 3 mps 732 mmHg 73%
12:00 +16°C° 0.2 mm 3 mps 732 mmHg 76%
13:00 +16°C° 0.2 mm 3 mps 732 mmHg 79%
14:00 +16°C° 0.1 mm 3 mps 732 mmHg 78%
15:00 +16°C° 0.1 mm 3 mps 732 mmHg 78%
16:00 +15°C° 0.1 mm 4 mps 731 mmHg 78%
17:00 +16°C° 0 mm 3 mps 731 mmHg 80%
18:00 +14°C° 0 mm 3 mps 731 mmHg 83%
19:00 +13°C° 0 mm 3 mps 731 mmHg 85%
20:00 +13°C° 0.1 mm 3 mps 731 mmHg 87%
21:00 +13°C° 0.1 mm 4 mps 731 mmHg 88%
22:00 +12°C° 0.1 mm 4 mps 731 mmHg 90%
23:00 +12°C° 0.5 mm 4 mps 731 mmHg 91%

Tomorrow, 14 May, Friday

Time Temperature Precipitation Wind Pressure Humidity
00:00 +12°C° 0.5 mm 5 mps 731 mmHg 92%
01:00 +10°C° 0.5 mm 5 mps 731 mmHg 93%
02:00 +10°C° 0.4 mm 5 mps 732 mmHg 93%
03:00 +10°C° 0.4 mm 5 mps 732 mmHg 93%
04:00 +10°C° 0.4 mm 5 mps 732 mmHg 92%
05:00 +10°C° 0.1 mm 5 mps 732 mmHg 92%
06:00 +10°C° 0.1 mm 5 mps 732 mmHg 92%
07:00 +10°C° 0.1 mm 5 mps 733 mmHg 92%
08:00 +10°C° 0.2 mm 5 mps 733 mmHg 93%
09:00 +11°C° 0.2 mm 4 mps 733 mmHg 93%
10:00 +11°C° 0.2 mm 4 mps 734 mmHg 93%
11:00 +11°C° 0.6 mm 4 mps 734 mmHg 93%
12:00 +11°C° 0.6 mm 4 mps 734 mmHg 93%
13:00 +12°C° 0.6 mm 4 mps 735 mmHg 93%
14:00 +12°C° 0.4 mm 5 mps 735 mmHg 92%
15:00 +12°C° 0.4 mm 5 mps 735 mmHg 91%
16:00 +12°C° 0.4 mm 5 mps 736 mmHg 90%
17:00 +10°C° 0.1 mm 5 mps 736 mmHg 89%
18:00 +10°C° 0.1 mm 5 mps 736 mmHg 88%
19:00 +9°C° 0.1 mm 5 mps 737 mmHg 88%
20:00 +10°C° 0 mm 4 mps 737 mmHg 88%
21:00 +10°C° 0 mm 4 mps 737 mmHg 88%
22:00 +10°C° 0 mm 4 mps 738 mmHg 88%
23:00 +10°C° 0 mm 4 mps 738 mmHg 88%

Day after tomorrow, 15 May, Saturday

Time Temperature Precipitation Wind Pressure Humidity
00:00 +8°C° 0 mm 4 mps 738 mmHg 87%
01:00 +8°C° 0 mm 4 mps 738 mmHg 87%
02:00 +9°C° 0 mm 3 mps 738 mmHg 88%
03:00 +8°C° 0 mm 3 mps 738 mmHg 89%
04:00 +8°C° 0 mm 3 mps 738 mmHg 91%
05:00 +8°C° 0 mm 2 mps 739 mmHg 89%
06:00 +9°C° 0 mm 2 mps 739 mmHg 87%
07:00 +10°C° 0 mm 2 mps 739 mmHg 86%
08:00 +10°C° 0 mm 2 mps 739 mmHg 83%
09:00 +12°C° 0 mm 2 mps 740 mmHg 81%
10:00 +12°C° 0 mm 2 mps 740 mmHg 79%
11:00 +14°C° 0 mm 2 mps 740 mmHg 70%
12:00 +16°C° 0 mm 2 mps 739 mmHg 62%
13:00 +18°C° 0 mm 2 mps 739 mmHg 54%
14:00 +19°C° 0 mm 1 mps 739 mmHg 52%
15:00 +20°C° 0 mm 1 mps 739 mmHg 50%
16:00 +20°C° 0 mm 1 mps 739 mmHg 48%
17:00 +18°C° 0 mm 1 mps 738 mmHg 57%
18:00 +15°C° 0 mm 2 mps 738 mmHg 65%
19:00 +13°C° 0 mm 2 mps 738 mmHg 74%
20:00 +13°C° 0 mm 2 mps 738 mmHg 77%
21:00 +12°C° 0 mm 2 mps 738 mmHg 80%
22:00 +10°C° 0 mm 3 mps 738 mmHg 83%
23:00 +10°C° 0 mm 3 mps 738 mmHg 84%

16 May, Sunday

Time Temperature Precipitation Wind Pressure Humidity
00:00 +10°C° 0 mm 3 mps 738 mmHg 85%
01:00 +10°C° 0 mm 3 mps 738 mmHg 87%
02:00 +10°C° 0 mm 3 mps 738 mmHg 89%
03:00 +9°C° 0 mm 3 mps 738 mmHg 91%
04:00 +9°C° 0 mm 3 mps 737 mmHg 93%
05:00 +11°C° 0 mm 3 mps 737 mmHg 88%
06:00 +12°C° 0 mm 4 mps 737 mmHg 84%
07:00 +14°C° 0 mm 4 mps 737 mmHg 79%
08:00 +17°C° 0 mm 4 mps 737 mmHg 71%
09:00 +18°C° 0 mm 3 mps 737 mmHg 64%
10:00 +20°C° 0 mm 3 mps 737 mmHg 56%
11:00 +21°C° 0.2 mm 3 mps 736 mmHg 55%
12:00 +21°C° 0.2 mm 4 mps 736 mmHg 54%
13:00 +22°C° 0.2 mm 4 mps 736 mmHg 53%
14:00 +20°C° 0.7 mm 3 mps 735 mmHg 62%
15:00 +19°C° 0.7 mm 3 mps 735 mmHg 72%
16:00 +17°C° 0.7 mm 3 mps 735 mmHg 81%
17:00 +17°C° 0.5 mm 3 mps 735 mmHg 83%
18:00 +16°C° 0.5 mm 3 mps 735 mmHg 86%
19:00 +15°C° 0.5 mm 2 mps 735 mmHg 88%
20:00 +13°C° 0.1 mm 3 mps 735 mmHg 90%
21:00 +13°C° 0.1 mm 3 mps 735 mmHg 92%
22:00 +12°C° 0.1 mm 3 mps 735 mmHg 94%
23:00 +12°C° 0.1 mm 3 mps 735 mmHg 95%

17 May, Monday

Time Temperature Precipitation Wind Pressure Humidity
00:00 +12°C° 0.1 mm 3 mps 735 mmHg 96%
01:00 +11°C° 0.1 mm 3 mps 735 mmHg 97%
02:00 +11°C° 0.5 mm 3 mps 735 mmHg 97%
03:00 +11°C° 0.5 mm 3 mps 735 mmHg 97%
04:00 +11°C° 0.5 mm 3 mps 735 mmHg 97%
05:00 +11°C° 0.4 mm 3 mps 736 mmHg 96%
06:00 +11°C° 0.4 mm 3 mps 736 mmHg 95%
07:00 +11°C° 0.4 mm 3 mps 736 mmHg 94%
08:00 +12°C° 0.2 mm 3 mps 736 mmHg 87%
09:00 +13°C° 0.2 mm 3 mps 736 mmHg 80%
10:00 +16°C° 0.2 mm 3 mps 736 mmHg 73%
11:00 +17°C° 0.1 mm 3 mps 736 mmHg 66%
12:00 +19°C° 0.1 mm 3 mps 736 mmHg 58%
13:00 +20°C° 0.1 mm 4 mps 736 mmHg 50%
14:00 +20°C° 0 mm 3 mps 736 mmHg 51%
15:00 +19°C° 0 mm 3 mps 736 mmHg 53%
16:00 +19°C° 0 mm 3 mps 736 mmHg 55%
17:00 +18°C° 0 mm 3 mps 736 mmHg 63%
18:00 +16°C° 0 mm 2 mps 736 mmHg 71%
19:00 +14°C° 0 mm 2 mps 736 mmHg 78%
20:00 +14°C° 0.1 mm 2 mps 736 mmHg 82%
21:00 +13°C° 0.1 mm 2 mps 736 mmHg 87%
22:00 +12°C° 0.1 mm 2 mps 736 mmHg 91%
23:00 +12°C° 0 mm 2 mps 736 mmHg 91%

18 May, Tuesday

Time Temperature Precipitation Wind Pressure Humidity
00:00 +12°C° 0 mm 2 mps 736 mmHg 92%
01:00 +10°C° 0 mm 2 mps 736 mmHg 92%
02:00 +10°C° 0 mm 2 mps 735 mmHg 92%
03:00 +10°C° 0 mm 2 mps 735 mmHg 92%
04:00 +10°C° 0 mm 2 mps 735 mmHg 91%
05:00 +11°C° 0.2 mm 3 mps 734 mmHg 89%
06:00 +12°C° 0.2 mm 3 mps 734 mmHg 87%
07:00 +12°C° 0.2 mm 4 mps 734 mmHg 85%
08:00 +12°C° 1.1 mm 4 mps 733 mmHg 88%
09:00 +12°C° 1.1 mm 5 mps 733 mmHg 90%
10:00 +13°C° 1.1 mm 5 mps 732 mmHg 93%
11:00 +12°C° 2.5 mm 5 mps 732 mmHg 93%
12:00 +12°C° 2.5 mm 5 mps 731 mmHg 94%
13:00 +12°C° 2.5 mm 5 mps 731 mmHg 94%
14:00 +12°C° 0.9 mm 5 mps 731 mmHg 95%
15:00 +12°C° 0.9 mm 4 mps 731 mmHg 95%
16:00 +12°C° 0.9 mm 4 mps 731 mmHg 95%
17:00 +10°C° 0.3 mm 5 mps 731 mmHg 95%
18:00 +9°C° 0.3 mm 6 mps 731 mmHg 95%
19:00 +9°C° 0.3 mm 7 mps 731 mmHg 95%
20:00 +9°C° 1.3 mm 8 mps 732 mmHg 95%
21:00 +7°C° 1.3 mm 9 mps 732 mmHg 94%
22:00 +7°C° 1.3 mm 11 mps 732 mmHg 93%
23:00 +7°C° 2.3 mm 11 mps 733 mmHg 93%
Show more